This is the latest recevied weather packets stored in our database for station/object N4PWG. If no packets are shown the sender has not sent any weather packets the latest 10 day(s).
| Time | Temp. | Humidity | Pressure | Rain* | Wind** | Luminosity | Snow |
|---|---|---|---|---|---|---|---|
| 1777725862 | 8.89° C | 96% | 1035.1 hPa | 0 mm | - | 200 W/m² | - |
| 1777725560 | 8.89° C | 98% | 1035.1 hPa | 0 mm | - | 91 W/m² | - |
| 1777725256 | 7.22° C | 99% | 1035.2 hPa | 0 mm | - | 69 W/m² | - |
| 1777724954 | 7.22° C | 99% | 1035.1 hPa | 0 mm | - | 68 W/m² | - |
| 1777724650 | 7.22° C | 99% | 1035 hPa | 0 mm | - | 62 W/m² | - |
| 1777724348 | 6.67° C | 99% | 1034.8 hPa | 0 mm | - | 62 W/m² | - |
| 1777724045 | 6.11° C | 99% | 1034.8 hPa | 0 mm | - | 59 W/m² | - |
| 1777723743 | 5° C | 99% | 1034.7 hPa | 0 mm | - | 46 W/m² | - |
| 1777723438 | 5° C | 99% | 1034.4 hPa | 0 mm | - | 31 W/m² | - |
| 1777723136 | 4.44° C | 99% | 1034.5 hPa | 0 mm | - | 26 W/m² | - |
| 1777722833 | 4.44° C | 99% | 1034.5 hPa | 0 mm | - | 24 W/m² | - |
| 1777722529 | 4.44° C | 99% | 1034.5 hPa | 0 mm | - | 22 W/m² | - |
| 1777722226 | 4.44° C | 99% | 1034.7 hPa | 0 mm | - | 20 W/m² | - |
| 1777721923 | 4.44° C | 99% | 1034.5 hPa | 0 mm | - | 17 W/m² | - |
| 1777721621 | 4.44° C | 99% | 1034.7 hPa | 0 mm | - | 15 W/m² | - |
| 1777721319 | 3.89° C | 99% | 1034.5 hPa | 0 mm | - | 13 W/m² | - |
| 1777721016 | 3.89° C | 99% | 1034.7 hPa | 0 mm | - | 10 W/m² | - |
| 1777720713 | 3.89° C | 99% | 1034.3 hPa | 0 mm | - | 7 W/m² | - |
| 1777720411 | 3.89° C | 99% | 1034.3 hPa | 0 mm | - | 5 W/m² | - |
| 1777720108 | 3.89° C | 99% | 1034.3 hPa | 0 mm | - | 2 W/m² | - |
| 1777719806 | 3.89° C | 99% | 1034.4 hPa | 0 mm | - | 0 W/m² | - |
| 1777719503 | 3.89° C | 99% | 1034.1 hPa | 0 mm | - | 0 W/m² | - |
| 1777719200 | 3.89° C | 99% | 1034.5 hPa | 0 mm | - | 0 W/m² | - |
| 1777718898 | 4.44° C | 99% | 1034.4 hPa | 0 mm | - | 0 W/m² | - |
| 1777718595 | 4.44° C | 99% | 1034.2 hPa | 0 mm | - | 0 W/m² | - |
* Rain latest hour (hover to see other rain measurements)
** Current wind speed in m/s (hover to see current wind gust speed)